Location: Dennis Manor
(64.8292°N, 147.5397°W)
Time: 09:22:45
(UTC+00:00)

Envisat - Pass Details

Date: 03 November 2020
Orbit: 764 x 766 km, 98.1° (Epoch: 05 December)

Event Time Altitude Azimuth Distance (km) Brightness Sun altitude
Rises 02:18:57 0° 160° (SSE) 3,231 6.3 -6.0°
Reaches altitude 10° 02:21:15 10° 161° (SSE) 2,308 5.6 -6.3°
Maximum altitude 02:26:21 84° 251° (WSW) 780 3.2 -6.8°
Drops below altitude 10° 02:31:29 10° 340° (NNW) 2,320 5.5 -7.3°
Sets 02:33:48 0° 341° (NNW) 3,250 6.2 -7.5°
